Regional Weather Roundup
Issued by NWS

Home | Current Version | Previous Version | Graphics & Text | Print | Product List | Glossary On
Versions: 1 2 3 4 5 6 7 8 9 10 11 12 13 14 15 16 17 18 19 20 21 22 23 24 25 26 27
000
ASUS45 KSLC 160710
RWRUT

UTAH REGIONAL WEATHER ROUNDUP
NATIONAL WEATHER SERVICE SALT LAKE CITY UT
100 AM MDT WED APR 16 2014

UTZ001>011-023>025-160800-

NORTHERN UTAH

CITY           SKY/WX    TMP DP  RH WIND       PRES   REMARKS
HILL AFB       CLOUDY    47  14  27 N12       29.96R
LOGAN          CLEAR     43  17  35 S5        29.95R
OGDEN          CLOUDY    48  15  26 N13       29.95R
PROVO AIRPORT  MOCLDY    52  25  35 NW12      29.93R
SALT LAKE CITY CLOUDY    50  20  30 N5        29.94S
VERNAL         PTCLDY    45  23  42 N8        29.82R
WENDOVER       PTCLDY    48  19  32 N17G24    29.96R
HEBER CITY     MOCLDY    45  12  26 N10G18    29.92R
WEST JORDAN    CLEAR     46  25  42 NW10      29.96R

$$

UTZ012>022-026-027-160800-

SOUTHERN UTAH

CITY           SKY/WX    TMP DP  RH WIND       PRES   REMARKS
BRYCE CANYON   CLEAR     31   9  39 W7        29.99R WCI  24
CEDAR CITY     CLEAR     43   8  23 SE8       29.92R
MILFORD        PTCLDY    50  20  30 N16       29.91R
MOAB/CYNLANDS  CLEAR     45  14  28 W6        29.79R
PRICE          PTCLDY    50  20  30 NW15G22   29.85S
ST GEORGE      PTSUNNY   59   7  12 E5        29.83S

$$

REGIONAL REPORTS     COLORADO/ARIZONA

CITY           SKY/WX    TMP DP  RH WIND       PRES   REMARKS
CRAIG, CO      CLOUDY    42  27  55 SW7       29.85R
GRAND JUNCTION PTCLDY    42  27  55 CALM      29.80R
RIFLE          MOCLDY    45  28  51 NE3       29.80S
MONTROSE       MOCLDY    53  10  18 S7        29.85F
CORTEZ         CLEAR     33  16  49 E5        29.90F WCI  29
PAGE, AZ       CLEAR     60   3  10 NW5       29.84R
GRAND CANYON   PTCLDY    27  -3  27 NE5       29.99S WCI  22
KINGMAN        CLEAR     49   1  14 SE5       29.86F
FLAGSTAFF      CLEAR     30   7  37 CALM      30.02S

$$

REGIONAL REPORTS    NEVADA/IDAHO/WYOMING

CITY           SKY/WX    TMP DP  RH WIND       PRES   REMARKS
LAS VEGAS, NV  PTCLDY    68  18  14 SW7       29.73S
ELY            CLEAR     43  21  41 W9        29.99R
ELKO           MOCLDY    42  15  33 W7        29.98S
POCATELLO, ID  CLEAR     36  18  48 N7        29.98R WCI  30
BURLEY         PTCLDY    35  22  58 SW7       29.97R WCI  29
EVANSTON, WY   CLOUDY    35  11  36 W13       29.96S WCI  26
ROCK SPRINGS   MOCLDY    32  23  69 W7        29.89R WCI  26

$$



USA.gov is the U.S. government's official web portal to all federal, state and local government web resources and services.